Somerville, NJ

8:50 PM EDT on July 25, 2017 (GMT -0400)
Somerset

Weather History for KSMQ - October, 2014

Change the Weather History Date:

Sunday, October 26, 2014

  Actual Average Record
Temperature  
Mean Temperature 54 °F -  
Max Temperature 64 °F 61 °F 82 °F (1963)
Min Temperature 44 °F 38 °F 22 °F (1952)
Degree Days  
Heating Degree Days 10    
Growing Degree Days 4 (Base 50)    
Moisture  
Dew Point 38 °F    
Average Humidity 53    
Maximum Humidity 83    
Minimum Humidity 34    
Precipitation  
Precipitation 0.00 in - - ()
Sea Level Pressure  
Sea Level Pressure 29.68 in    
Wind  
Wind Speed 7 mph (NW)    
Max Wind Speed 20 mph    
Max Gust Speed 33 mph    
Visibility 10 miles    
Events      
Averages and records for this station are not official NWS values.
T = Trace of Precipitation, MM = Missing Value Source: NWS Daily Summary

Daily Weather History Graph

Daily Weather History Graph

Search for Another Location

Airport or City:

Trip Planner

Search our weather history database for the weather conditions in past years. The results will help you decide how hot, cold, wet, or windy it might be!

Date:

Astronomy

Oct. 26, 2014 Rise Set
Actual Time 7:21 AM EDT 6:02 PM EDT
Civil Twilight 6:53 AM EDT 6:30 PM EDT
Nautical Twilight 6:21 AM EDT 7:02 PM EDT
Astronomical Twilight 5:50 AM EDT 7:34 PM EDT
Moon 9:58 AM EDT 8:11 PM EDT
Length of Visible Light 11h 36m
Length of Day
10h 40m
Waxing Crescent, 8% of the Moon is Illuminated
Oct 26
Waxing Crescent
Oct 30
First Quarter
Nov 6
Full
Nov 14
Last Quarter
Nov 22
New

Hourly Weather History & Observations

Time (EDT) Temp. Windchill Dew Point Humidity Pressure Visibility Wind Dir Wind Speed Gust Speed Precip Events Conditions
12:53 AM 61.0 °F - 45.0 °F 56% 29.58 in 10.0 mi NW 8.1 mph - N/A   Overcast
1:53 AM 57.9 °F - 46.0 °F 65% 29.57 in 10.0 mi WNW 3.5 mph - N/A   Overcast
2:53 AM 50.0 °F - 45.0 °F 83% 29.56 in 10.0 mi Calm Calm - N/A   Clear
3:53 AM 48.9 °F - 44.1 °F 83% 29.56 in 10.0 mi Calm Calm - N/A   Mostly Cloudy
4:53 AM 48.9 °F - 44.1 °F 83% 29.59 in 9.0 mi Calm Calm - N/A   Mostly Cloudy
5:53 AM 57.0 °F - 35.1 °F 44% 29.62 in 10.0 mi NW 11.5 mph - N/A   Scattered Clouds
6:53 AM 51.1 °F - 37.0 °F 59% 29.62 in 10.0 mi Calm Calm - N/A   Clear
7:53 AM 48.0 °F - 37.0 °F 66% 29.64 in 10.0 mi North - - N/A   Clear
8:53 AM 57.0 °F - 35.1 °F 44% 29.65 in 10.0 mi Variable 6.9 mph - N/A   Clear
9:53 AM 59.0 °F - 35.1 °F 41% 29.64 in 10.0 mi WNW 11.5 mph 19.6 mph N/A   Clear
10:53 AM 60.1 °F - 33.1 °F 36% 29.65 in 10.0 mi NW 17.3 mph 33.4 mph N/A   Scattered Clouds
11:53 AM 62.1 °F - 34.0 °F 35% 29.65 in 10.0 mi NW 16.1 mph 25.3 mph N/A   Mostly Cloudy
12:53 PM 63.0 °F - 35.1 °F 35% 29.64 in 10.0 mi NW 17.3 mph 25.3 mph N/A   Scattered Clouds
1:53 PM 63.0 °F - 34.0 °F 34% 29.65 in 10.0 mi WNW 13.8 mph 19.6 mph N/A   Mostly Cloudy
2:53 PM 64.0 °F - 35.1 °F 34% 29.65 in 10.0 mi NW 11.5 mph 24.2 mph N/A   Mostly Cloudy
3:53 PM 63.0 °F - 35.1 °F 35% 29.68 in 10.0 mi WNW 13.8 mph 29.9 mph N/A   Mostly Cloudy
4:53 PM 62.1 °F - 35.1 °F 37% 29.70 in 10.0 mi NW 19.6 mph 27.6 mph N/A   Mostly Cloudy
5:53 PM 60.1 °F - 35.1 °F 39% 29.73 in 10.0 mi NNW 6.9 mph - N/A   Mostly Cloudy
6:53 PM 57.9 °F - 36.0 °F 44% 29.77 in 10.0 mi NNW 5.8 mph - N/A   Mostly Cloudy
7:53 PM 54.0 °F - 36.0 °F 51% 29.80 in 10.0 mi NW 5.8 mph - N/A   Clear
8:53 PM 54.0 °F - 36.0 °F 51% 29.81 in 10.0 mi NNW 4.6 mph - N/A   Clear
9:53 PM 48.0 °F - 37.9 °F 68% 29.83 in 10.0 mi Calm Calm - N/A   Clear
10:53 PM 45.0 °F - 37.9 °F 76% 29.84 in 10.0 mi Calm Calm - N/A   Clear
11:53 PM 44.1 °F 42.5 °F 39.0 °F 82% 29.86 in 10.0 mi SE 3.5 mph - N/A   Overcast